Tracking 18980 objects as of 20-Feb-2018
HD Live streaming from Space Station
objects crossing your sky now

TRANSAT

Track TRANSAT now!
10-day predictions
TRANSAT is classified as:


NORAD ID: 10457
Int'l Code: 1977-106A
Perigee: 1,064.5 km
Apogee: 1,104.7 km
Inclination: 89.8 °
Period: 106.8 minutes
Semi major axis: 7455 km
RCS: 1.7788 m2 (large)
Launch date: October 28, 1977
Source: United States (US)
Launch site: AIR FORCE WESTERN TEST RANGE (AFWTR)
aabbcc
Your satellite tracking list
Your tracking list is empty




NASA's NSSDC Master Catalog

Two Line Element Set (TLE):
1 10457U 77106A   18050.92034590 +.00000038 +00000-0 +44837-4 0  9995
2 10457 089.7620 166.0977 0026995 135.2760 348.7817 13.48583043982918
Source of the keplerian elements: AFSPC